Regional Weather Roundup
Issued by NWS State College, PA

Home | Current Version | Previous Version | Graphics & Text | Print | Product List | Glossary Off
Versions: 1 2 3 4 5 6 7 8 9 10 11 12 13 14 15 16 17 18 19 20 21 22 23 24 25 26 27 28 29 30 31 32 33 34 35 36 37 38 39 40 41 42 43 44 45 46 47 48 49 50

000
ASUS41 KCTP 010103
RWRCTP

REGIONAL WEATHER ROUNDUP
NATIONAL WEATHER SERVICE STATE COLLEGE PA
800 PM EST SAT FEB 28 2015

Note: "fair" indicates few or no clouds below 12,000 feet with no
significant weather and/or obstructions to visibility.

* = STATION THAT DOES NOT REPORT PRECIPITATION /E.G. RAIN...SNOW...ETC/
    THUNDER OR FOG.

PAZ002>004-007>009-013>016-020>023-029>032-010200-
WESTERN PENNSYLVANIA

CITY           SKY/WX    TMP DP  RH WIND       PRES   REMARKS
ERIE           FAIR      11   0  61 E3        30.65F
MEADVILLE        N/A     18  -5  36 CALM      30.57F
FRANKLIN*      FAIR      18  -8  32 SE5       30.59F WCI  11
NEW CASTLE     FAIR      18  -7  32 CALM      30.62F
BEAVER COUNTY  CLEAR     21   0  39 CALM      30.60S
BUTLER*        FAIR      16  -2  45 E3        30.61S
PITTSBURGH INT FAIR      23  -1  35 E5        30.59F
PITTSBURGH     FAIR      23  -5  29 E3        30.58S
INDIANA*       CLEAR     21   0  39 E5        30.62F WCI  15
LATROBE        CLEAR     23   0  36 NE6       30.61F
WASHINGTON CO* MOCLDY    21  10  63 CALM      30.60S
$$

PAZ004>006-010>012-017>019-024>028-033>037-041-042-045-046-049>053-010200-
CENTRAL PENNSYLVANIA

CITY           SKY/WX    TMP DP  RH WIND       PRES   REMARKS
BRADFORD       FAIR      11  -8  42 CALM      30.54F
DUBOIS         FAIR      18  -9  29 E7        30.56F WCI   9
CLEARFIELD     FAIR      18  -4  37 CALM      30.61S
JOHNSTOWN      FAIR      18  -2  41 SE5       30.52F WCI  11
ALTOONA        FAIR      20  -2  38 E7        30.62S WCI  11
STATE COLLEGE  NOT AVBL
WILLIAMSPORT   FAIR      20   1  43 NE3       30.71S
SELINSGROVE    FAIR      16   6  65 CALM      30.73S
FT INDIANTOWN  FAIR      19   2  47 CALM      30.73S
CAPITAL CITY   FAIR      21   3  45 CALM      30.74S
HARRISBURG     FAIR      19   3  49 CALM      30.74S
YORK           FAIR      13   4  67 CALM      30.73S
$$

PAZ038>040-043-044-047-048-054-055-060>062-067>071-010200-
EASTERN PENNSYLVANIA

CITY           SKY/WX    TMP DP  RH WIND       PRES   REMARKS
SCRANTON       FAIR      19   0  43 E5        30.67F WCI  12
MOUNT POCONO   FAIR      14  -4  44 NW3       30.60S
ALLENTOWN      FAIR      17  -1  45 CALM      30.72F
QUAKERTOWN*    FAIR      16   3  57 CALM      30.73S
READING        FAIR      21   0  39 CALM      30.74S
LANCASTER      FAIR      20   0  41 SE3       30.74S
COATESVILLE    FAIR      23   1  39 W3        30.72F
POTTSTOWN      FAIR      18   4  54 CALM      30.75F
BLUE BELL      FAIR      21  10  63 CALM      30.73F
DOYLESTOWN     FAIR      19   0  43 CALM      30.72F
WILLOW GROVE   NOT AVBL
NORTH PHILA    FAIR      25  -1  32 CALM      30.77F
PHILADELPHIA   FAIR      27   5  39 S5        30.77F
$$


USA.gov is the U.S. government's official web portal to all federal, state and local government web resources and services.